EW7906 Weather Reports


Display with metric or nautical units.
time (UTC)temp
F
wind
direction
speed
MPH
gust
MPH
rain 1hr
in
rain 24hr
in
rain mn
in
humidity
%
barometer
mb
20260905180556 148 108 3.0 11.0 0.00 0.00 0.00 100 1014.0
20260905180328 148 156 6.0 9.0 0.00 0.00 0.00 100 1014.0
20260905175557 148 174 6.0 12.0 0.00 0.00 0.00 100 1014.1
20260905175057 148 130 4.0 12.0 0.00 0.00 0.00 100 1014.3
20260905174557 148 26 1.0 8.0 0.00 0.00 0.00 100 1014.3
20260905174057 147 142 2.0 7.0 0.00 0.00 0.00 100 1014.5
20260905173556 148 146 3.0 7.0 0.00 0.00 0.00 100 1014.4
20260905173057 148 14 0.0 7.0 0.00 0.00 0.00 100 1014.5
20260905172557 148 157 1.0 5.0 0.00 0.00 0.00 100 1014.5
20260905172053 148 167 3.0 5.0 0.00 0.00 0.00 100 1014.7
20260905171539 148 147 1.0 6.0 0.00 0.00 0.00 100 1014.6
20260905171039 147 135 4.0 10.0 0.00 0.00 0.00 100 1014.7
20260905170808 147 91 6.0 10.0 0.00 0.00 0.00 100 1014.7
20260905170029 147 115 0.0 9.0 0.00 0.00 0.00 100 1014.7
20260905165801 148 149 1.0 9.0 0.00 0.00 0.00 100 1014.7
20260905165021 148 133 4.0 6.0 0.00 0.00 0.00 100 1014.8
20260905164516 147 109 0.0 9.0 0.00 0.00 0.00 100 1014.9
20260905164006 147 149 0.0 9.0 0.00 0.00 0.00 100 1014.9
20260905163734 147 161 3.0 9.0 0.00 0.00 0.00 100 1014.9
20260905163003 147 150 5.0 9.0 0.00 0.00 0.00 100 1014.8
20260905162502 147 143 2.0 8.0 0.00 0.00 0.00 100 1014.8
20260905162232 147 180 5.0 8.0 0.00 0.00 0.00 100 1014.8
20260905161732 147 125 0.0 8.0 0.00 0.00 0.00 100 1014.9
20260905160959 146 182 5.0 8.0 0.00 0.00 0.00 100 1015.0
20260905160729 147 140 4.0 8.0 0.00 0.00 0.00 100 1014.9
20260905155959 146 146 0.0 11.0 0.00 0.00 0.00 100 1014.9
20260905155456 147 170 0.0 11.0 0.00 0.00 0.00 100 1014.9
20260905154957 147 188 5.0 9.0 0.00 0.00 0.00 100 1014.8
20260905154458 146 217 3.0 9.0 0.00 0.00 0.00 100 1014.8
20260905153958 146 151 3.0 9.0 0.00 0.00 0.00 100 1014.8
20260905153457 146 244 5.0 9.0 0.00 0.00 0.00 100 1014.8
20260905152956 146 151 2.0 9.0 0.00 0.00 0.00 100 1014.9
20260905152727 146 239 6.0 9.0 0.00 0.00 0.00 100 1014.9
20260905151957 147 229 2.0 8.0 0.00 0.00 0.00 100 1014.9
20260905151458 146 246 0.0 7.0 0.00 0.00 0.00 100 1014.8
20260905150957 146 236 1.0 7.0 0.00 0.00 0.00 100 1014.9
20260905150457 145 222 0.0 8.0 0.00 0.00 0.00 100 1014.9
20260905145956 145 164 4.0 8.0 0.00 0.00 0.00 100 1014.9
20260905145456 145 187 0.0 7.0 0.00 0.00 0.00 100 1014.9
20260905144951 145 123 4.0 7.0 0.00 0.00 0.00 100 1014.8
20260905144451 145 137 0.0 6.0 0.00 0.00 0.00 100 1014.7
20260905143942 145 170 0.0 6.0 0.00 0.00 0.00 100 1014.7
20260905143439 145 136 0.0 6.0 0.00 0.00 0.00 100 1014.8
20260905143210 145 220 1.0 6.0 0.00 0.00 0.00 100 1014.7
20260905142712 145 113 0.0 3.0 0.00 0.00 0.00 100 1014.7
20260905141919 145 113 0.0 3.0 0.00 0.00 0.00 100 1014.7
20260905141344 144 113 0.0 6.0 0.00 0.00 0.00 100 1014.7
20260905140833 144 125 1.0 6.0 0.00 0.00 0.00 100 1014.6
20260905140331 144 154 4.0 5.0 0.00 0.00 0.00 100 1014.6
20260905135830 144 154 0.0 5.0 0.00 0.00 0.00 100 1014.6
20260905135330 144 181 0.0 0.0 0.00 0.00 0.00 100 1014.5
20260905134830 144 181 0.0 0.0 0.00 0.00 0.00 2 1014.4
20260905134311 144 181 0.0 0.0 0.00 0.00 0.00 4 1014.4
20260905133808 144 181 0.0 0.0 0.00 0.00 0.00 14 1014.4
20260905133300 143 181 0.0 0.0 0.00 0.00 0.00 29 1014.5
20260905132754 143 181 0.0 0.0 0.00 0.00 0.00 47 1014.5
20260905132242 143 181 0.0 0.0 0.00 0.00 0.00 65 1014.4
20260905131741 143 181 0.0 0.0 0.00 0.00 0.00 96 1014.3
20260905131509 143 181 0.0 0.0 0.00 0.00 0.00 100 1014.3
20260905130714 143 181 0.0 0.0 0.00 0.00 0.00 100 1014.3
20260905130215 143 181 0.0 0.0 0.00 0.00 0.00 100 1014.2
20260905125714 143 181 0.0 0.0 0.00 0.00 0.00 100 1014.2
20260905125212 143 181 0.0 0.0 0.00 0.00 0.00 100 1014.2
20260905124658 143 181 0.0 0.0 0.00 0.00 0.00 100 1014.0
20260905124157 143 181 0.0 0.0 0.00 0.00 0.00 100 1013.9
20260905123635 143 181 0.0 0.0 0.00 0.00 0.00 100 1013.9
20260905123127 142 181 0.0 0.0 0.00 0.00 0.00 100 1013.9
20260905122617 143 181 0.0 0.0 0.00 0.00 0.00 100 1013.9
20260905122117 142 181 0.0 0.0 0.00 0.00 0.00 100 1013.9
20260905121554 142 181 0.0 0.0 0.00 0.00 0.00 100 1013.9
20260905121041 143 181 0.0 0.0 0.00 0.00 0.00 100 1013.8
20260905120539 142 181 0.0 0.0 0.00 0.00 0.00 100 1013.8
20260905120248 142 181 0.0 0.0 0.00 0.00 0.00 100 1013.8
20260905115512 142 181 0.0 0.0 0.00 0.00 0.00 100 1013.6
20260905115002 142 181 0.0 0.0 0.00 0.00 0.00 100 1013.5
20260905114457 143 181 0.0 0.0 0.00 0.00 0.00 100 1013.5
20260905113935 143 181 0.0 0.0 0.00 0.00 0.00 100 1013.5
20260905113407 143 181 0.0 0.0 0.00 0.00 0.00 100 1013.5
20260905113138 143 181 0.0 0.0 0.00 0.00 0.00 95 1013.3
20260905112629 143 181 0.0 0.0 0.00 0.00 0.00 92 1013.3
20260905111856 143 181 0.0 0.0 0.00 0.00 0.00 92 1013.4
20260905111604 143 181 0.0 0.0 0.00 0.00 0.00 92 1013.4
20260905110829 143 181 0.0 0.0 0.00 0.00 0.00 91 1013.3
20260905110326 143 181 0.0 0.0 0.00 0.00 0.00 45 1013.3
20260905105828 143 181 0.0 0.0 0.00 0.00 0.00 41 1013.2
20260905105324 143 181 0.0 0.0 0.00 0.00 0.00 41 1013.2
20260905104817 143 181 0.0 0.0 0.00 0.00 0.00 33 1013.2
20260905104254 143 181 0.0 0.0 0.00 0.00 0.00 30 1013.2
20260905103731 143 181 0.0 0.0 0.00 0.00 0.00 26 1013.2
20260905103223 143 181 0.0 0.0 0.00 0.00 0.00 23 1013.2
20260905102713 143 181 0.0 0.0 0.00 0.00 0.00 19 1013.2
20260905102212 143 181 0.0 0.0 0.00 0.00 0.00 17 1013.2
20260905101712 143 181 0.0 0.0 0.00 0.00 0.00 15 1013.3
20260905101212 143 181 0.0 0.0 0.00 0.00 0.00 15 1013.2
20260905100706 143 181 0.0 0.0 0.00 0.00 0.00 13 1013.2
20260905100204 143 181 0.0 0.0 0.00 0.00 0.00 10 1013.1
20260905095658 143 181 0.0 0.0 0.00 0.00 0.00 8 1013.1
20260905095158 143 181 0.0 0.0 0.00 0.00 0.00 7 1013.0
20260905094658 143 181 0.0 0.0 0.00 0.00 0.00 7 1013.0
20260905094145 143 181 0.0 0.0 0.00 0.00 0.00 6 1013.0
20260905093629 143 181 0.0 0.0 0.00 0.00 0.00 5 1013.0
20260905093356 143 181 0.0 0.0 0.00 0.00 0.00 5 1013.0
20260905092857 143 181 0.0 0.0 0.00 0.00 0.00 4 1013.0
20260905092106 143 181 0.0 0.0 0.00 0.00 0.00 4 1013.0
20260905091545 143 181 0.0 0.0 0.00 0.00 0.00 3 1013.0
20260905091044 143 181 0.0 0.0 0.00 0.00 0.00 2 1013.0
20260905090809 143 181 0.0 0.0 0.00 0.00 0.00 2 1013.1
20260905090530 143 181 0.0 0.0 0.00 0.00 0.00 1 1013.0
20260905085525 143 181 0.0 0.0 0.00 0.00 0.00 1 1013.1
20260905085025 143 181 0.0 0.0 0.00 0.00 0.00 100 1013.1
20260905084502 143 181 0.0 0.0 0.00 0.00 0.00 100 1013.2
20260905084214 143 181 0.0 0.0 0.00 0.00 0.00 100 1013.2
20260905083428 143 181 0.0 3.0 0.00 0.00 0.00 100 1013.2
20260905082927 144 181 0.0 3.0 0.00 0.00 0.00 100 1013.2
20260905082417 144 125 0.0 1.0 0.00 0.00 0.00 100 1013.2
20260905082148 144 125 0.0 6.0 0.00 0.00 0.00 100 1013.3
20260905081647 144 125 1.0 6.0 0.00 0.00 0.00 100 1013.3
20260905080913 144 174 0.0 0.0 0.00 0.00 0.00 100 1013.3
20260905080403 144 174 0.0 0.0 0.00 0.00 0.00 100 1013.5
20260905075848 143 174 0.0 0.0 0.00 0.00 0.00 100 1013.4
20260905075838 144 174 0.0 0.0 0.00 0.00 0.00 100 1013.4
20260905074829 144 174 0.0 0.0 0.00 0.00 0.00 100 1013.5
20260905074326 144 174 0.0 0.0 0.00 0.00 0.00 100 1013.5
20260905073821 144 174 0.0 0.0 0.00 0.00 0.00 100 1013.6
20260905073312 144 174 0.0 0.0 0.00 0.00 0.00 100 1013.6
20260905072813 144 174 0.0 0.0 0.00 0.00 0.00 100 1013.8
20260905072258 144 174 0.0 0.0 0.00 0.00 0.00 100 1013.8
20260905071739 144 174 0.0 1.0 0.00 0.00 0.00 100 1013.9
20260905071218 144 174 0.0 8.0 0.00 0.00 0.00 100 1013.9
20260905070654 144 174 0.0 8.0 0.00 0.00 0.00 100 1014.0
20260905070147 144 201 0.0 4.0 0.00 0.00 0.00 100 1014.0
20260905065648 144 201 0.0 7.0 0.00 0.00 0.00 100 1014.0
20260905065144 144 201 4.0 7.0 0.00 0.00 0.00 100 1014.1
20260905064642 144 158 0.0 4.0 0.00 0.00 0.00 100 1014.0
20260905064136 144 158 0.0 8.0 0.00 0.00 0.00 100 1014.0
20260905063630 144 136 0.0 8.0 0.00 0.00 0.00 100 1014.0
20260905063125 144 168 0.0 8.0 0.00 0.00 0.00 100 1014.0
20260905062625 144 150 1.0 8.0 0.00 0.00 0.00 100 1014.0
20260905062124 144 150 0.0 6.0 0.00 0.00 0.00 100 1014.0
20260905061612 144 157 2.0 6.0 0.00 0.00 0.00 100 1014.1
20260905061344 144 139 0.0 7.0 0.00 0.00 0.00 100 1014.1
20260905060611 144 153 0.0 7.0 0.00 0.00 0.00 100 1014.1
20260905060049 144 139 0.0 5.0 0.00 0.00 0.00 100 1014.1
20260905060030 144 81 0.0 5.0 0.00 0.00 0.00 100 1014.1
20260905055257 144 210 0.0 4.0 0.00 0.00 0.00 100 1014.1
20260905054520 144 210 1.0 5.0 0.00 0.00 0.00 100 1014.0
20260905054012 144 140 0.0 5.0 0.00 0.00 0.00 100 1014.0
20260905053501 144 125 0.0 4.0 0.00 0.00 0.00 100 1014.0
20260905053230 144 161 0.0 2.0 0.00 0.00 0.00 100 1014.0
20260905052436 144 167 0.0 0.0 0.00 0.00 0.00 100 1014.1
20260905052144 144 167 0.0 0.0 0.00 0.00 0.00 100 1014.1
20260905051353 144 167 0.0 4.0 0.00 0.00 0.00 100 1014.1
20260905050832 144 167 3.0 4.0 0.00 0.00 0.00 100 1014.1
20260905050811 144 156 0.0 3.0 0.00 0.00 0.00 100 1014.1
20260905045808 144 132 0.0 5.0 0.00 0.00 0.00 100 1014.1
20260905045257 144 191 0.0 5.0 0.00 0.00 0.00 100 1014.0
20260905044746 144 146 0.0 6.0 0.00 0.00 0.00 100 1014.1
20260905044517 144 158 0.0 7.0 0.00 0.00 0.00 100 1014.1
20260905044351 144 181 4.0 7.0 0.00 0.00 0.00 100 1013.9
20260905043237 145 177 0.0 5.0 0.00 0.00 0.00 100 1014.0
20260905043009 144 139 0.0 9.0 0.00 0.00 0.00 100 1013.9
20260905042237 145 144 0.0 9.0 0.00 0.00 0.00 100 1014.0
20260905041730 145 144 2.0 6.0 0.00 0.00 0.00 100 1014.0
20260905041659 145 101 0.0 7.0 0.00 0.00 0.00 100 1013.9
20260905040657 145 136 3.0 7.0 0.00 0.00 0.00 100 1014.0
20260905040150 145 151 0.0 6.0 0.00 0.00 0.00 100 1013.9
20260905035647 145 129 0.0 3.0 0.00 0.00 0.00 100 1013.8
20260905035143 145 129 0.0 3.0 0.00 0.00 0.00 100 1013.9
20260905034641 145 129 0.0 3.0 0.00 0.00 0.00 100 1013.8
20260905034407 145 104 1.0 6.0 0.00 0.00 0.00 100 1013.9
20260905033630 145 123 0.0 6.0 0.00 0.00 0.00 100 1013.8
20260905033130 145 118 0.0 1.0 0.00 0.00 0.00 100 1013.8
20260905032625 145 118 0.0 3.0 0.00 0.00 0.00 100 1013.6
20260905032115 145 118 1.0 3.0 0.00 0.00 0.00 100 1013.6
20260905031606 145 188 0.0 0.0 0.00 0.00 0.00 100 1013.6
20260905031057 145 188 0.0 0.0 0.00 0.00 0.00 100 1013.6
20260905030557 145 188 0.0 0.0 0.00 0.00 0.00 100 1013.5
20260905030057 145 188 0.0 0.0 0.00 0.00 0.00 100 1013.4
20260905025827 145 188 0.0 0.0 0.00 0.00 0.00 100 1013.5
20260905025057 145 188 0.0 0.0 0.00 0.00 0.00 100 1013.3
20260905024652 145 188 0.0 3.0 0.00 0.00 0.00 100 1013.2
20260905023526 145 188 0.0 3.0 0.00 0.00 0.00 100 1013.2
20260905023003 145 139 0.0 0.0 0.00 0.00 0.00 100 1013.2
20260905022501 145 139 0.0 2.0 0.00 0.00 0.00 100 1013.1
20260905022001 145 139 0.0 4.0 0.00 0.00 0.00 100 1013.0
20260905021457 145 157 0.0 4.0 0.00 0.00 0.00 100 1013.0
20260905020955 145 115 0.0 0.0 0.00 0.00 0.00 100 1012.9
20260905020433 145 115 0.0 6.0 0.00 0.00 0.00 100 1012.9
20260905015929 145 115 3.0 7.0 0.00 0.00 0.00 100 1012.8
20260905015428 145 137 0.0 7.0 0.00 0.00 0.00 100 1012.8
20260905014917 145 167 3.0 6.0 0.00 0.00 0.00 100 1012.8
20260905014416 145 158 0.0 6.0 0.00 0.00 0.00 100 1012.8
20260905013913 145 130 0.0 5.0 0.00 0.00 0.00 100 1012.8
20260905013357 145 174 2.0 8.0 0.00 0.00 0.00 100 1012.8
20260905012843 145 101 1.0 8.0 0.00 0.00 0.00 100 1012.5
20260905012323 145 172 0.0 6.0 0.00 0.00 0.00 100 1012.5
20260905011802 145 116 0.0 3.0 0.00 0.00 0.00 100 1012.5
20260905011256 145 116 0.0 7.0 0.00 0.00 0.00 100 1012.4
20260905010756 145 170 5.0 7.0 0.00 0.00 0.00 100 1012.3
20260905010257 145 111 3.0 5.0 0.00 0.00 0.00 100 1012.2
20260905005757 146 133 2.0 4.0 0.00 0.00 0.00 100 1012.1
20260905005243 146 165 0.0 6.0 0.00 0.00 0.00 100 1012.1
20260905004743 146 147 0.0 9.0 0.00 0.00 0.00 100 1012.1
20260905004243 146 126 5.0 9.0 0.00 0.00 0.00 100 1012.1
20260905003719 146 139 0.0 6.0 0.00 0.00 0.00 100 1012.0
20260905003157 146 158 3.0 8.0 0.00 0.00 0.00 100 1012.0
20260905002928 146 111 3.0 8.0 0.00 0.00 0.00 100 1011.8
20260905002428 146 151 3.0 7.0 0.00 0.00 0.00 100 1011.8
20260905001912 146 118 4.0 10.0 0.00 0.00 0.00 100 1011.8
20260905001143 146 140 4.0 10.0 0.00 0.00 0.00 100 1011.7
20260905001138 146 105 2.0 10.0 0.00 0.00 0.00 100 1011.8
20260905000139 146 171 5.0 10.0 0.00 0.00 0.00 100 1011.7
20260904235639 146 144 1.0 11.0 0.00 0.00 0.00 100 1011.6
20260904235139 146 171 5.0 11.0 0.00 0.00 0.00 100 1011.6
20260904234637 146 156 5.0 11.0 0.00 0.00 0.00 100 1011.5
20260904234135 146 144 4.0 10.0 0.00 0.00 0.00 100 1011.5
20260904233903 147 161 4.0 11.0 0.00 0.00 0.00 100 1011.4
20260904233628 147 170 6.0 13.0 0.00 0.00 0.00 100 1011.3
20260904232626 147 147 4.0 13.0 0.00 0.00 0.00 100 1011.3
20260904232120 147 154 6.0 10.0 0.00 0.00 0.00 100 1011.4
20260904231620 147 147 2.0 9.0 0.00 0.00 0.00 100 1011.4
20260904231119 147 139 5.0 9.0 0.00 0.00 0.00 100 1011.5
20260904230619 147 158 4.0 9.0 0.00 0.00 0.00 100 1011.5
20260904230118 147 165 5.0 9.0 0.00 0.00 0.00 100 1011.5
20260904225616 147 146 5.0 8.0 0.00 0.00 0.00 100 1011.6
20260904225117 147 184 5.0 8.0 0.00 0.00 0.00 100 1011.6
20260904224616 147 102 3.0 9.0 0.00 0.00 0.00 100 1011.6
20260904224116 147 167 4.0 9.0 0.00 0.00 0.00 100 1011.5
20260904223615 148 156 4.0 10.0 0.00 0.00 0.00 100 1011.6
20260904223117 147 146 6.0 11.0 0.00 0.00 0.00 100 1011.8
20260904222617 148 127 5.0 11.0 0.00 0.00 0.00 100 1011.8
20260904222115 147 135 4.0 10.0 0.00 0.00 0.00 100 1011.8
20260904221615 147 194 6.0 10.0 0.00 0.00 0.00 100 1011.8
20260904221114 148 171 0.0 10.0 0.00 0.00 0.00 100 1011.7
20260904220610 148 147 2.0 10.0 0.00 0.00 0.00 100 1011.8
20260904220058 147 168 6.0 10.0 0.00 0.00 0.00 100 1011.9
20260904215828 147 137 4.0 11.0 0.00 0.00 0.00 100 1011.9
20260904215057 147 208 6.0 11.0 0.00 0.00 0.00 100 1011.9
20260904214829 147 119 2.0 10.0 0.00 0.00 0.00 100 1012.0
20260904214059 148 181 6.0 9.0 0.00 0.00 0.00 100 1012.1
20260904213558 147 161 5.0 9.0 0.00 0.00 0.00 100 1012.1
20260904213057 148 188 2.0 10.0 0.00 0.00 0.00 100 1012.1
20260904212547 148 156 4.0 10.0 0.00 0.00 0.00 100 1012.2
20260904212046 148 172 5.0 9.0 0.00 0.00 0.00 100 1012.3
20260904211547 148 201 5.0 8.0 0.00 0.00 0.00 100 1012.3
20260904211045 148 199 5.0 9.0 0.00 0.00 0.00 100 1012.4
20260904210815 148 171 4.0 11.0 0.00 0.00 0.00 100 1012.5
20260904210045 147 132 4.0 11.0 0.00 0.00 0.00 100 1012.5
20260904205544 147 149 6.0 10.0 0.00 0.00 0.00 100 1012.5
20260904205044 148 137 2.0 10.0 0.00 0.00 0.00 100 1012.5
20260904204534 147 115 5.0 10.0 0.00 0.00 0.00 100 1012.8
20260904204033 147 116 3.0 9.0 0.00 0.00 0.00 100 1012.9
20260904203532 147 163 6.0 9.0 0.00 0.00 0.00 100 1012.8
20260904203030 147 135 6.0 9.0 0.00 0.00 0.00 100 1012.9
20260904202800 147 154 4.0 8.0 0.00 0.00 0.00 100 1012.9
20260904202029 148 109 1.0 8.0 0.00 0.00 0.00 100 1013.0
20260904201528 147 151 5.0 9.0 0.00 0.00 0.00 100 1013.1
20260904201028 147 199 3.0 9.0 0.00 0.00 0.00 100 1013.1
20260904200521 147 112 4.0 12.0 0.00 0.00 0.00 100 1013.2
20260904200019 147 150 5.0 12.0 0.00 0.00 0.00 100 1013.3
20260904195519 147 137 3.0 11.0 0.00 0.00 0.00 100 1013.4
20260904195004 147 125 5.0 11.0 0.00 0.00 0.00 100 1013.4
20260904194505 147 115 3.0 10.0 0.00 0.00 0.00 100 1013.4
20260904194002 147 240 1.0 10.0 0.00 0.00 0.00 100 1013.5
20260904193502 147 171 6.0 10.0 0.00 0.00 0.00 100 1013.5
20260904193001 146 154 5.0 10.0 0.00 0.00 0.00 100 1013.6
20260904192501 146 165 6.0 9.0 0.00 0.00 0.00 100 1013.6
20260904192000 146 137 3.0 6.0 0.00 0.00 0.00 100 1013.9
20260904191459 146 182 1.0 7.0 0.00 0.00 0.00 100 1013.9
20260904190958 146 119 4.0 9.0 0.00 0.00 0.00 100 1014.1
20260904190457 146 132 3.0 12.0 0.00 0.00 0.00 100 1014.1
20260904185958 147 171 6.0 12.0 0.00 0.00 0.00 100 1014.1
20260904185457 147 142 6.0 9.0 0.00 0.00 0.00 100 1014.1
20260904184957 146 70 1.0 9.0 0.00 0.00 0.00 100 1014.2
20260904184457 146 115 6.0 9.0 0.00 0.00 0.00 100 1014.3
20260904183957 147 136 2.0 9.0 0.00 0.00 0.00 100 1014.4
20260904183458 146 146 5.0 9.0 0.00 0.00 0.00 100 1014.4
20260904182957 147 187 5.0 9.0 0.00 0.00 0.00 100 1014.4
20260904182458 147 113 0.0 8.0 0.00 0.00 0.00 100 1014.3
20260904181954 146 172 2.0 8.0 0.00 0.00 0.00 100 1014.4
20260904181453 146 81 0.0 8.0 0.00 0.00 0.00 100 1014.4